Regional Weather Roundup
Issued by NWS Albany, NY

Home | Current Version | Previous Version | Text Only | Print | Product List | Glossary On
Versions: 1 2 3 4 5 6 7 8 9 10 11 12 13 14 15 16 17 18 19 20 21 22 23 24 25 26 27 28 29 30 31 32 33 34 35 36 37 38 39 40 41 42 43 44 45 46 47 48 49 50
000
ASUS41 KALY 020010
RWRALY

NEW YORK STATE HOURLY WEATHER ROUNDUP
NATIONAL WEATHER SERVICE ALBANY NY
800 PM EDT MON SEP 01 2014

NOTE: "FAIR" INDICATES FEW OR NO CLOUDS BELOW 12,000 FEET WITH NO
SIGNIFICANT WEATHER AND/OR NO OBSTRUCTIONS TO VISIBILITY.

NYZ032-033-038>043-046>054-057>066-NYZ062>081-020100-
EAST


CITY           SKY/WX    TMP DP  RH WIND       PRES   REMARKS
ALBANY         PTCLDY    80  68  66 SE3       29.90S
GLENS FALLS    CLEAR     73  68  84 CALM      29.89S
POUGHKEEPSIE   PTCLDY    79  73  82 CALM      29.91R
MONTGOMERY     MOCLDY    76  72  87 CALM      29.92S
WHITE PLAINS   PTCLDY    76  73  91 SE3       29.95R
ISLIP          PTCLDY    77  72  84 S7        29.94R
NEW YORK CITY  MOCLDY    81  72  74 S9        29.93R
CENTRAL PARK   PTCLDY    81  71  71 CALM      29.96R
$$

NYZ005>009-017-018-044>046-055-056-020100-
CENTRAL


CITY           SKY/WX    TMP DP  RH WIND       PRES   REMARKS
FULTON         MOCLDY    77  68  73 VRB3      29.86S
SYRACUSE       PTCLDY    81  68  64 S6        29.87R
ROME           CLEAR     77  69  76 SE5       29.90R
ELMIRA         CLEAR     76  69  79 SW5       29.91R
BINGHAMTON     CLEAR     74  68  81 S6        29.95F
MONTICELLO     MOCLDY    75  70  83 S6        29.99S
$$

NYZ026>034-041>043-020100-
NORTH


CITY           SKY/WX    TMP DP  RH WIND       PRES   REMARKS
WATERTOWN      PTCLDY    76  67  73 CALM      29.85R
FORT DRUM      NOT AVBL
MASSENA        CLEAR     71  70  96 CALM      29.85F
SARANAC LAKE   CLEAR     66  64  93 CALM      29.92F
PLATTSBURGH    CLEAR     72  67  84 CALM      29.87S
$$

NYZ001>004-010>016-019>021-020100-
WEST


CITY           SKY/WX    TMP DP  RH WIND       PRES   REMARKS
NIAGARA FALLS  MOCLDY    78  68  71 S8        29.84S
BUFFALO        MOCLDY    79  69  71 S7        29.86R
DUNKIRK        PTCLDY    77  68  73 S13       29.87R
JAMESTOWN      MOCLDY    73  66  78 S9        29.94R
WELLSVILLE     PTCLDY    73  67  81 S6        29.98S
ROCHESTER      MOCLDY    78  73  84 CALM      29.86R
PENN YAN       CLEAR     77  68  73 S6        29.90R
$$

             KEY
       WCI = WIND CHILL INDEX
       VSB = VISIBILITY
       HX  = HEAT INDEX
$$


USA.gov is the U.S. government's official web portal to all federal, state and local government web resources and services.